User: anonymous
Location: Lawrence Hall of Science
(37.8785°N, 122.2415°W)
Time: 20:39:09
(UTC-07:00)
Language:

NOSS 3-1 (C) - Orbit

View from above orbital plane
View from above orbital plane
View from above satellite
View from above satellite

Ground track
Ground track

The orbit data is extracted from the following two-line orbital elements,

1 26907U 01040C   14238.81463926 0.00000000  00000-0  00000-0 0    09
2 26907  63.4213 127.0903 0277000 357.9885   2.0115 13.41202874    09
Epoch (UTC): 26 August 2014 19:33:04
Eccentricity: 0.0277000
inclination: 63.4213°
perigee height: 897 km
apogee height: 1312 km
right ascension of ascending node: 127.0903°
argument of perigee: 357.9885°
revolutions per day: 13.41202874
mean anomaly at epoch: 2.0115°
orbit number at epoch: 0

The dashed part of the orbit path shows where the satellite is in the earth's shadow,  

DLR